Time,TemperatureF,DewpointF,PressureIn,WindDirection,WindDirectionDegrees,WindSpeedMPH,WindSpeedGustMPH,Humidity,HourlyPrecipIn,Conditions,Clouds,dailyrainin,SoftwareType,DateUTC
2013-03-23 00:00:00,23.5,19.4,29.88,NNW,329,5.0,8.0,84,0.00,,,0.00,meteohub,2013-03-23 04:00:00,
2013-03-23 00:01:00,23.5,19.4,29.88,North,349,3.0,8.0,84,0.00,,,0.00,meteohub,2013-03-23 04:01:00,
2013-03-23 00:06:00,23.2,18.9,29.88,WSW,252,8.0,14.0,83,0.00,,,0.00,meteohub,2013-03-23 04:06:00,
2013-03-23 00:11:00,23.0,18.7,29.88,West,281,8.0,14.0,83,0.00,,,0.00,meteohub,2013-03-23 04:11:00,
2013-03-23 00:17:00,23.0,18.3,29.88,West,267,9.0,16.0,82,0.00,,,0.00,meteohub,2013-03-23 04:17:00,
2013-03-23 00:22:00,23.0,18.7,29.88,WSW,257,9.0,16.0,83,0.00,,,0.00,meteohub,2013-03-23 04:22:00,
2013-03-23 00:27:00,23.0,18.3,29.88,West,261,8.0,16.0,82,0.00,,,0.00,meteohub,2013-03-23 04:27:00,
2013-03-23 00:32:00,22.8,18.5,29.88,West,268,8.0,15.0,83,0.00,,,0.00,meteohub,2013-03-23 04:32:00,
2013-03-23 00:37:00,22.8,18.5,29.88,WSW,250,12.0,15.0,83,0.00,,,0.00,meteohub,2013-03-23 04:37:00,
2013-03-23 00:42:00,23.4,19.0,29.88,West,265,4.0,15.0,83,0.00,,,0.00,meteohub,2013-03-23 04:42:00,
2013-03-23 00:47:00,23.4,19.0,29.88,West,277,4.0,15.0,83,0.00,,,0.00,meteohub,2013-03-23 04:47:00,
2013-03-23 00:52:00,23.2,18.9,29.88,WSW,252,6.0,12.0,83,0.00,,,0.00,meteohub,2013-03-23 04:52:00,
2013-03-23 00:57:00,23.2,19.0,29.87,West,275,2.0,8.0,84,0.00,,,0.00,meteohub,2013-03-23 04:57:00,
2013-03-23 01:02:00,23.2,19.0,29.87,NW,313,8.0,11.0,84,0.00,,,0.00,meteohub,2013-03-23 05:02:00,
2013-03-23 01:07:00,23.2,19.0,29.87,WSW,252,4.0,11.0,84,0.00,,,0.00,meteohub,2013-03-23 05:07:00,
2013-03-23 01:12:00,23.0,18.9,29.87,West,265,0.0,11.0,84,0.00,,,0.00,meteohub,2013-03-23 05:12:00,
2013-03-23 01:17:00,23.0,18.9,29.87,WNW,291,2.0,11.0,84,0.00,,,0.00,meteohub,2013-03-23 05:17:00,
2013-03-23 01:22:00,23.0,18.9,29.88,West,263,4.0,11.0,84,0.00,,,0.00,meteohub,2013-03-23 05:22:00,
2013-03-23 01:27:00,23.2,19.4,29.88,NNW,338,2.0,11.0,85,0.00,,,0.00,meteohub,2013-03-23 05:27:00,
2013-03-23 01:32:00,23.2,19.4,29.87,NW,305,3.0,10.0,85,0.00,,,0.00,meteohub,2013-03-23 05:32:00,
2013-03-23 01:37:00,23.2,19.4,29.88,NW,323,0.0,10.0,85,0.00,,,0.00,meteohub,2013-03-23 05:37:00,
2013-03-23 01:42:00,23.4,19.6,29.88,WNW,284,1.0,10.0,85,0.00,,,0.00,meteohub,2013-03-23 05:42:00,
2013-03-23 01:47:00,23.5,19.8,29.87,WNW,286,2.0,10.0,85,0.00,,,0.00,meteohub,2013-03-23 05:47:00,
2013-03-23 01:52:00,23.5,19.8,29.88,WNW,286,0.0,9.0,85,0.00,,,0.00,meteohub,2013-03-23 05:52:00,
2013-03-23 01:57:00,23.7,19.9,29.87,WNW,298,0.0,8.0,85,0.00,,,0.00,meteohub,2013-03-23 05:57:00,
2013-03-23 02:02:00,23.9,20.1,29.87,WNW,285,0.0,8.0,85,0.00,,,0.00,meteohub,2013-03-23 06:02:00,
2013-03-23 02:07:00,23.9,20.1,29.87,WNW,294,8.0,8.0,85,0.00,,,0.00,meteohub,2013-03-23 06:07:00,
2013-03-23 02:12:00,23.9,20.3,29.87,NW,315,2.0,8.0,86,0.00,,,0.00,meteohub,2013-03-23 06:12:00,
2013-03-23 02:17:00,24.1,20.5,29.87,WNW,301,0.0,8.0,86,0.00,,,0.00,meteohub,2013-03-23 06:17:00,
2013-03-23 02:22:00,23.9,20.3,29.87,WNW,291,3.0,8.0,86,0.00,,,0.00,meteohub,2013-03-23 06:22:00,
2013-03-23 02:28:00,24.1,20.8,29.87,NW,304,0.0,7.0,87,0.00,,,0.00,meteohub,2013-03-23 06:28:00,
2013-03-23 02:33:00,24.1,20.8,29.86,WNW,285,0.0,7.0,87,0.00,,,0.00,meteohub,2013-03-23 06:33:00,
2013-03-23 02:38:00,24.3,21.0,29.86,NW,319,1.0,7.0,87,0.00,,,0.00,meteohub,2013-03-23 06:38:00,
2013-03-23 02:43:00,24.3,21.0,29.86,WNW,291,0.0,6.0,87,0.00,,,0.00,meteohub,2013-03-23 06:43:00,
2013-03-23 02:48:00,24.3,21.0,29.86,NW,309,4.0,6.0,87,0.00,,,0.00,meteohub,2013-03-23 06:48:00,
2013-03-23 02:53:00,24.4,21.2,29.86,West,281,1.0,7.0,87,0.00,,,0.00,meteohub,2013-03-23 06:53:00,
2013-03-23 02:58:00,24.4,21.2,29.86,NNE,16,7.0,7.0,87,0.00,,,0.00,meteohub,2013-03-23 06:58:00,
2013-03-23 03:03:00,24.4,21.2,29.85,NW,315,0.0,6.0,87,0.00,,,0.00,meteohub,2013-03-23 07:03:00,
2013-03-23 03:08:00,24.4,21.2,29.85,NNE,28,2.0,10.0,87,0.00,,,0.00,meteohub,2013-03-23 07:08:00,
2013-03-23 03:13:00,24.4,21.2,29.85,West,275,6.0,10.0,87,0.00,,,0.00,meteohub,2013-03-23 07:13:00,
2013-03-23 03:18:00,24.4,21.2,29.85,WSW,238,3.0,10.0,87,0.00,,,0.00,meteohub,2013-03-23 07:18:00,
2013-03-23 03:23:00,24.6,21.4,29.85,WSW,248,7.0,10.0,87,0.00,,,0.00,meteohub,2013-03-23 07:23:00,
2013-03-23 03:28:00,24.6,21.4,29.85,WSW,251,4.0,10.0,87,0.00,,,0.00,meteohub,2013-03-23 07:28:00,
2013-03-23 03:33:00,24.8,21.6,29.84,WNW,298,6.0,10.0,87,0.00,,,0.00,meteohub,2013-03-23 07:33:00,
2013-03-23 03:38:00,24.8,21.6,29.84,SW,215,0.0,10.0,87,0.00,,,0.00,meteohub,2013-03-23 07:38:00,
2013-03-23 03:43:00,24.8,21.6,29.85,West,278,4.0,8.0,87,0.00,,,0.00,meteohub,2013-03-23 07:43:00,
2013-03-23 03:48:00,24.6,21.4,29.84,WNW,282,6.0,8.0,87,0.00,,,0.00,meteohub,2013-03-23 07:48:00,
2013-03-23 03:53:00,24.8,21.6,29.84,NW,304,3.0,8.0,87,0.00,,,0.00,meteohub,2013-03-23 07:53:00,
2013-03-23 03:58:00,24.8,21.6,29.84,NNW,327,1.0,8.0,87,0.00,,,0.00,meteohub,2013-03-23 07:58:00,
2013-03-23 04:03:00,24.8,21.6,29.84,NW,309,3.0,8.0,87,0.00,,,0.00,meteohub,2013-03-23 08:03:00,
2013-03-23 04:08:00,24.6,21.4,29.84,West,275,2.0,7.0,87,0.00,,,0.00,meteohub,2013-03-23 08:08:00,
2013-03-23 04:13:00,24.4,21.2,29.84,NW,307,5.0,11.0,87,0.00,,,0.00,meteohub,2013-03-23 08:13:00,
2013-03-23 04:18:00,24.3,21.2,29.84,NNW,341,4.0,11.0,88,0.00,,,0.00,meteohub,2013-03-23 08:18:00,
2013-03-23 04:23:00,24.3,21.2,29.84,WSW,251,3.0,8.0,88,0.00,,,0.00,meteohub,2013-03-23 08:23:00,
2013-03-23 04:28:00,24.3,21.2,29.84,West,265,5.0,7.0,88,0.00,,,0.00,meteohub,2013-03-23 08:28:00,
2013-03-23 04:33:00,24.3,21.2,29.84,NNW,338,3.0,7.0,88,0.00,,,0.00,meteohub,2013-03-23 08:33:00,
2013-03-23 04:38:00,24.4,21.4,29.84,NW,317,2.0,6.0,88,0.00,,,0.00,meteohub,2013-03-23 08:38:00,
2013-03-23 04:44:00,24.4,21.4,29.84,WNW,303,1.0,6.0,88,0.00,,,0.00,meteohub,2013-03-23 08:44:00,
2013-03-23 04:49:00,24.6,21.6,29.84,WNW,292,2.0,7.0,88,0.00,,,0.00,meteohub,2013-03-23 08:49:00,
2013-03-23 04:54:00,24.6,21.6,29.84,NW,305,2.0,7.0,88,0.00,,,0.00,meteohub,2013-03-23 08:54:00,
2013-03-23 04:59:00,24.6,21.6,29.84,West,279,2.0,6.0,88,0.00,,,0.00,meteohub,2013-03-23 08:59:00,
2013-03-23 05:04:00,24.6,21.6,29.83,WNW,302,3.0,6.0,88,0.00,,,0.00,meteohub,2013-03-23 09:04:00,
2013-03-23 05:09:00,24.6,21.4,29.83,NNW,342,1.0,6.0,87,0.00,,,0.00,meteohub,2013-03-23 09:09:00,
2013-03-23 05:14:00,24.6,21.4,29.84,NW,306,0.0,7.0,87,0.00,,,0.00,meteohub,2013-03-23 09:14:00,
2013-03-23 05:19:00,24.6,21.4,29.84,West,271,5.0,7.0,87,0.00,,,0.00,meteohub,2013-03-23 09:19:00,
2013-03-23 05:24:00,24.8,21.2,29.84,WNW,300,5.0,7.0,86,0.00,,,0.00,meteohub,2013-03-23 09:24:00,
2013-03-23 05:29:00,25.0,21.4,29.84,NW,317,3.0,9.0,86,0.00,,,0.00,meteohub,2013-03-23 09:29:00,
2013-03-23 05:34:00,25.0,21.2,29.84,West,277,2.0,9.0,85,0.00,,,0.00,meteohub,2013-03-23 09:34:00,
2013-03-23 05:39:00,25.0,21.2,29.84,West,276,8.0,9.0,85,0.00,,,0.00,meteohub,2013-03-23 09:39:00,
2013-03-23 05:44:00,25.0,21.2,29.84,WSW,252,2.0,12.0,85,0.00,,,0.00,meteohub,2013-03-23 09:44:00,
2013-03-23 05:49:00,25.0,21.2,29.83,WSW,248,9.0,12.0,85,0.00,,,0.00,meteohub,2013-03-23 09:49:00,
2013-03-23 05:54:00,25.0,20.8,29.83,West,273,4.0,13.0,84,0.00,,,0.00,meteohub,2013-03-23 09:54:00,
2013-03-23 05:59:00,25.0,20.8,29.83,WNW,283,3.0,13.0,84,0.00,,,0.00,meteohub,2013-03-23 09:59:00,
2013-03-23 06:04:00,25.0,20.8,29.83,WNW,289,8.0,13.0,84,0.00,,,0.00,meteohub,2013-03-23 10:04:00,
2013-03-23 06:09:00,25.0,20.5,29.83,ENE,70,1.0,8.0,83,0.00,,,0.00,meteohub,2013-03-23 10:09:00,
2013-03-23 06:14:00,25.0,20.5,29.83,WNW,293,6.0,8.0,83,0.00,,,0.00,meteohub,2013-03-23 10:14:00,
2013-03-23 06:19:00,25.0,20.5,29.83,WNW,293,8.0,9.0,83,0.00,,,0.00,meteohub,2013-03-23 10:19:00,
2013-03-23 06:24:00,25.0,20.5,29.83,NNW,334,1.0,12.0,83,0.00,,,0.00,meteohub,2013-03-23 10:24:00,
2013-03-23 06:29:00,25.0,20.8,29.83,WSW,257,3.0,12.0,84,0.00,,,0.00,meteohub,2013-03-23 10:29:00,
2013-03-23 06:34:00,24.8,20.3,29.83,WSW,258,6.0,12.0,83,0.00,,,0.00,meteohub,2013-03-23 10:34:00,
2013-03-23 06:39:00,24.8,20.3,29.83,WNW,300,2.0,11.0,83,0.00,,,0.00,meteohub,2013-03-23 10:39:00,
2013-03-23 06:44:00,24.8,20.7,29.83,West,277,4.0,11.0,84,0.00,,,0.00,meteohub,2013-03-23 10:44:00,
2013-03-23 06:49:00,24.6,20.5,29.83,WNW,285,3.0,10.0,84,0.00,,,0.00,meteohub,2013-03-23 10:49:00,
2013-03-23 06:54:00,24.6,20.5,29.83,WNW,294,6.0,10.0,84,0.00,,,0.00,meteohub,2013-03-23 10:54:00,
2013-03-23 06:59:00,24.6,20.8,29.83,WSW,252,4.0,10.0,85,0.00,,,0.00,meteohub,2013-03-23 10:59:00,
2013-03-23 07:04:00,24.8,21.0,29.84,WNW,283,5.0,10.0,85,0.00,,,0.00,meteohub,2013-03-23 11:04:00,
2013-03-23 07:09:00,24.6,20.8,29.84,NW,318,8.0,10.0,85,0.00,,,0.00,meteohub,2013-03-23 11:09:00,
2013-03-23 07:14:00,24.6,20.8,29.84,NW,306,2.0,8.0,85,0.00,,,0.00,meteohub,2013-03-23 11:14:00,
2013-03-23 07:19:00,24.6,20.8,29.84,West,275,3.0,11.0,85,0.00,,,0.00,meteohub,2013-03-23 11:19:00,
2013-03-23 07:24:00,24.6,20.8,29.84,West,270,5.0,11.0,85,0.00,,,0.00,meteohub,2013-03-23 11:24:00,
2013-03-23 07:29:00,24.6,20.8,29.84,NW,309,1.0,11.0,85,0.00,,,0.00,meteohub,2013-03-23 11:29:00,
2013-03-23 07:34:00,24.8,20.7,29.84,NNW,332,0.0,11.0,84,0.00,,,0.00,meteohub,2013-03-23 11:34:00,
2013-03-23 07:39:00,24.8,20.7,29.84,NW,304,3.0,11.0,84,0.00,,,0.00,meteohub,2013-03-23 11:39:00,
2013-03-23 07:44:00,25.0,20.5,29.84,WNW,288,4.0,11.0,83,0.00,,,0.00,meteohub,2013-03-23 11:44:00,
2013-03-23 07:49:00,25.0,20.8,29.84,NNW,340,6.0,11.0,84,0.00,,,0.00,meteohub,2013-03-23 11:49:00,
2013-03-23 07:54:00,25.0,20.8,29.85,North,0,0.0,10.0,84,0.00,,,0.00,meteohub,2013-03-23 11:54:00,
2013-03-23 07:59:00,24.8,20.7,29.85,NW,307,3.0,9.0,84,0.00,,,0.00,meteohub,2013-03-23 11:59:00,
2013-03-23 08:04:00,25.0,20.8,29.85,WSW,251,2.0,12.0,84,0.00,,,0.00,meteohub,2013-03-23 12:04:00,
2013-03-23 08:09:00,25.0,20.5,29.85,WNW,300,0.0,12.0,83,0.00,,,0.00,meteohub,2013-03-23 12:09:00,
2013-03-23 08:14:00,25.0,20.5,29.85,West,269,2.0,12.0,83,0.00,,,0.00,meteohub,2013-03-23 12:14:00,
2013-03-23 08:19:00,25.0,20.5,29.85,NNW,333,6.0,11.0,83,0.00,,,0.00,meteohub,2013-03-23 12:19:00,
2013-03-23 08:24:00,25.2,20.7,29.85,NNW,327,1.0,11.0,83,0.00,,,0.00,meteohub,2013-03-23 12:24:00,
2013-03-23 08:29:00,25.2,20.7,29.85,NW,304,4.0,11.0,83,0.00,,,0.00,meteohub,2013-03-23 12:29:00,
2013-03-23 08:34:00,25.2,20.5,29.85,NW,311,4.0,11.0,82,0.00,,,0.00,meteohub,2013-03-23 12:34:00,
2013-03-23 08:39:00,25.2,20.5,29.85,WNW,297,2.0,11.0,82,0.00,,,0.00,meteohub,2013-03-23 12:39:00,
2013-03-23 08:44:00,25.3,20.7,29.85,NW,316,5.0,10.0,82,0.00,,,0.00,meteohub,2013-03-23 12:44:00,
2013-03-23 08:49:00,25.3,20.7,29.85,West,259,1.0,10.0,82,0.00,,,0.00,meteohub,2013-03-23 12:49:00,
2013-03-23 08:54:00,25.3,20.3,29.85,West,274,7.0,10.0,81,0.00,,,0.00,meteohub,2013-03-23 12:54:00,
2013-03-23 08:59:00,25.3,20.3,29.85,WNW,298,2.0,10.0,81,0.00,,,0.00,meteohub,2013-03-23 12:59:00,
2013-03-23 09:04:00,25.3,20.3,29.85,NW,320,1.0,10.0,81,0.00,,,0.00,meteohub,2013-03-23 13:04:00,
2013-03-23 09:09:00,25.5,20.5,29.85,NNW,338,2.0,8.0,81,0.00,,,0.00,meteohub,2013-03-23 13:09:00,
2013-03-23 09:14:00,25.9,20.5,29.85,WNW,290,0.0,15.0,80,0.00,,,0.00,meteohub,2013-03-23 13:14:00,
2013-03-23 09:19:00,26.4,20.8,29.85,North,355,4.0,15.0,79,0.00,,,0.00,meteohub,2013-03-23 13:19:00,
2013-03-23 09:25:00,27.5,21.6,29.85,WNW,294,2.0,12.0,78,0.00,,,0.00,meteohub,2013-03-23 13:25:00,
2013-03-23 09:30:00,28.2,21.6,29.84,WSW,254,6.0,12.0,76,0.00,,,0.00,meteohub,2013-03-23 13:30:00,
2013-03-23 09:35:00,28.6,21.7,29.84,West,271,8.0,12.0,75,0.00,,,0.00,meteohub,2013-03-23 13:35:00,
2013-03-23 09:40:00,28.8,21.9,29.84,North,355,5.0,14.0,75,0.00,,,0.00,meteohub,2013-03-23 13:40:00,
2013-03-23 09:45:00,28.6,21.7,29.84,East,97,2.0,14.0,75,0.00,,,0.00,meteohub,2013-03-23 13:45:00,
2013-03-23 09:50:00,28.2,21.0,29.84,SW,220,5.0,14.0,74,0.00,,,0.00,meteohub,2013-03-23 13:50:00,
2013-03-23 09:55:00,28.4,21.6,29.84,WNW,282,4.0,12.0,75,0.00,,,0.01,meteohub,2013-03-23 13:55:00,
2013-03-23 10:00:00,28.6,21.4,29.84,WSW,240,4.0,13.0,74,0.01,,,0.01,meteohub,2013-03-23 14:00:00,
2013-03-23 10:05:00,28.8,21.2,29.83,NW,311,3.0,13.0,73,0.02,,,0.02,meteohub,2013-03-23 14:05:00,
2013-03-23 10:10:00,29.7,21.4,29.83,NNW,342,5.0,11.0,71,0.02,,,0.02,meteohub,2013-03-23 14:10:00,
2013-03-23 10:15:00,30.2,21.2,29.83,WNW,295,5.0,14.0,69,0.02,,,0.02,meteohub,2013-03-23 14:15:00,
2013-03-23 10:20:00,30.4,20.7,29.83,West,266,8.0,14.0,67,0.02,,,0.02,meteohub,2013-03-23 14:20:00,
2013-03-23 10:25:00,30.2,20.8,29.83,NE,36,5.0,14.0,68,0.02,,,0.03,meteohub,2013-03-23 14:25:00,
2013-03-23 10:30:00,30.0,21.0,29.83,WNW,295,2.0,16.0,69,0.03,,,0.03,meteohub,2013-03-23 14:30:00,
2013-03-23 10:35:00,29.7,20.5,29.82,WSW,246,2.0,16.0,68,0.03,,,0.03,meteohub,2013-03-23 14:35:00,
2013-03-23 10:40:00,29.8,20.7,29.83,WNW,293,5.0,13.0,68,0.03,,,0.03,meteohub,2013-03-23 14:40:00,
2013-03-23 10:45:00,30.0,20.1,29.83,WNW,300,5.0,13.0,66,0.03,,,0.03,meteohub,2013-03-23 14:45:00,
2013-03-23 10:50:00,29.8,20.3,29.83,NNE,28,4.0,13.0,67,0.03,,,0.04,meteohub,2013-03-23 14:50:00,
2013-03-23 10:55:00,29.7,20.1,29.83,WNW,285,5.0,11.0,67,0.03,,,0.04,meteohub,2013-03-23 14:55:00,
2013-03-23 11:00:00,29.7,20.1,29.83,NW,313,2.0,11.0,67,0.02,,,0.04,meteohub,2013-03-23 15:00:00,
2013-03-23 11:05:00,29.8,19.9,29.83,WNW,283,2.0,11.0,66,0.02,,,0.04,meteohub,2013-03-23 15:05:00,
2013-03-23 11:10:00,30.2,19.9,29.83,WNW,300,6.0,12.0,65,0.02,,,0.04,meteohub,2013-03-23 15:10:00,
2013-03-23 11:15:00,30.7,20.3,29.82,ESE,109,2.0,12.0,65,0.02,,,0.04,meteohub,2013-03-23 15:15:00,
2013-03-23 11:21:00,30.7,20.3,29.82,West,267,6.0,13.0,65,0.01,,,0.04,meteohub,2013-03-23 15:21:00,
2013-03-23 11:26:00,30.9,20.1,29.82,WNW,301,3.0,16.0,64,0.01,,,0.04,meteohub,2013-03-23 15:26:00,
2013-03-23 11:31:00,30.7,20.3,29.83,SW,229,2.0,16.0,65,0.01,,,0.04,meteohub,2013-03-23 15:31:00,
2013-03-23 11:36:00,31.3,20.5,29.82,NW,319,3.0,16.0,64,0.01,,,0.04,meteohub,2013-03-23 15:36:00,
2013-03-23 11:41:00,31.5,20.7,29.83,NE,47,5.0,13.0,64,0.01,,,0.04,meteohub,2013-03-23 15:41:00,
2013-03-23 11:47:00,31.3,20.1,29.83,WNW,288,0.0,20.0,63,0.01,,,0.04,meteohub,2013-03-23 15:47:00,
2013-03-23 11:52:00,31.8,20.3,29.82,North,355,10.0,22.0,62,0.01,,,0.05,meteohub,2013-03-23 15:52:00,
2013-03-23 11:57:00,31.6,20.1,29.82,ESE,123,8.0,22.0,62,0.01,,,0.05,meteohub,2013-03-23 15:57:00,
2013-03-23 12:02:00,31.5,19.9,29.82,West,273,4.0,14.0,62,0.01,,,0.05,meteohub,2013-03-23 16:02:00,
2013-03-23 12:07:00,32.0,21.2,29.82,WNW,302,6.0,14.0,64,0.01,,,0.05,meteohub,2013-03-23 16:07:00,
2013-03-23 12:12:00,32.2,20.3,29.82,NW,321,10.0,14.0,61,0.01,,,0.05,meteohub,2013-03-23 16:12:00,
2013-03-23 12:17:00,31.3,19.8,29.82,WNW,296,9.0,17.0,62,0.01,,,0.05,meteohub,2013-03-23 16:17:00,
2013-03-23 12:22:00,31.5,19.9,29.82,NNE,31,7.0,21.0,62,0.01,,,0.05,meteohub,2013-03-23 16:22:00,
2013-03-23 12:27:00,31.8,19.9,29.82,WSW,244,8.0,21.0,61,0.01,,,0.05,meteohub,2013-03-23 16:27:00,
2013-03-23 12:32:00,31.8,19.0,29.82,North,5,3.0,13.0,59,0.02,,,0.06,meteohub,2013-03-23 16:32:00,
2013-03-23 12:37:00,31.8,19.0,29.82,West,271,2.0,14.0,59,0.02,,,0.06,meteohub,2013-03-23 16:37:00,
2013-03-23 12:42:00,32.2,19.0,29.82,NW,305,12.0,18.0,58,0.02,,,0.06,meteohub,2013-03-23 16:42:00,
2013-03-23 12:47:00,32.4,19.2,29.82,ESE,103,0.0,18.0,58,0.01,,,0.06,meteohub,2013-03-23 16:47:00,
2013-03-23 12:52:00,33.3,20.5,29.82,SSW,209,4.0,18.0,59,0.01,,,0.06,meteohub,2013-03-23 16:52:00,
2013-03-23 12:57:00,34.2,20.1,29.82,West,273,6.0,17.0,56,0.01,,,0.06,meteohub,2013-03-23 16:57:00,
2013-03-23 13:02:00,34.5,19.9,29.82,WNW,296,0.0,13.0,55,0.01,,,0.06,meteohub,2013-03-23 17:02:00,
2013-03-23 13:07:00,34.3,19.4,29.82,NNW,341,4.0,12.0,54,0.01,,,0.06,meteohub,2013-03-23 17:07:00,
2013-03-23 13:12:00,33.6,19.6,29.82,NW,306,2.0,12.0,56,0.01,,,0.06,meteohub,2013-03-23 17:12:00,
2013-03-23 13:17:00,33.4,19.4,29.83,West,263,7.0,13.0,56,0.01,,,0.06,meteohub,2013-03-23 17:17:00,
2013-03-23 13:22:00,34.2,19.8,29.83,NNW,330,11.0,13.0,55,0.01,,,0.06,meteohub,2013-03-23 17:22:00,
2013-03-23 13:27:00,33.6,18.7,29.83,SE,143,2.0,13.0,54,0.00,,,0.06,meteohub,2013-03-23 17:27:00,
2013-03-23 13:32:00,33.4,19.0,29.83,East,87,3.0,14.0,55,0.00,,,0.06,meteohub,2013-03-23 17:32:00,
2013-03-23 13:37:00,33.6,19.9,29.83,West,267,3.0,15.0,57,0.00,,,0.06,meteohub,2013-03-23 17:37:00,
2013-03-23 13:42:00,33.6,19.6,29.84,SW,215,3.0,15.0,56,0.00,,,0.06,meteohub,2013-03-23 17:42:00,
2013-03-23 13:47:00,33.1,19.0,29.83,West,260,2.0,14.0,56,0.00,,,0.06,meteohub,2013-03-23 17:47:00,
2013-03-23 13:52:00,32.7,19.2,29.83,WNW,282,2.0,15.0,57,0.00,,,0.06,meteohub,2013-03-23 17:52:00,
2013-03-23 13:57:00,32.9,19.4,29.83,NNW,344,0.0,15.0,57,0.00,,,0.06,meteohub,2013-03-23 17:57:00,
2013-03-23 14:03:00,33.1,19.6,29.83,SW,214,3.0,15.0,57,0.00,,,0.06,meteohub,2013-03-23 18:03:00,
2013-03-23 14:08:00,32.7,18.3,29.83,NNW,348,5.0,14.0,55,0.00,,,0.06,meteohub,2013-03-23 18:08:00,
2013-03-23 14:13:00,33.4,19.0,29.83,NW,325,5.0,16.0,55,0.00,,,0.06,meteohub,2013-03-23 18:13:00,
2013-03-23 14:18:00,33.1,18.7,29.83,WNW,296,4.0,17.0,55,0.00,,,0.06,meteohub,2013-03-23 18:18:00,
2013-03-23 14:23:00,32.9,18.5,29.83,West,271,2.0,17.0,55,0.00,,,0.06,meteohub,2013-03-23 18:23:00,
2013-03-23 14:28:00,33.1,19.0,29.83,NW,317,15.0,17.0,56,0.00,,,0.06,meteohub,2013-03-23 18:28:00,
2013-03-23 14:33:00,32.7,18.7,29.83,NE,51,4.0,23.0,56,0.00,,,0.06,meteohub,2013-03-23 18:33:00,
2013-03-23 14:38:00,32.9,18.9,29.83,WNW,302,5.0,23.0,56,0.00,,,0.06,meteohub,2013-03-23 18:38:00,
2013-03-23 14:43:00,32.7,18.0,29.83,NNW,344,4.0,15.0,54,0.00,,,0.06,meteohub,2013-03-23 18:43:00,
2013-03-23 14:48:00,32.9,18.1,29.84,SSW,205,5.0,16.0,54,0.00,,,0.06,meteohub,2013-03-23 18:48:00,
2013-03-23 14:53:00,32.7,18.0,29.84,NW,326,7.0,16.0,54,0.00,,,0.06,meteohub,2013-03-23 18:53:00,
2013-03-23 14:58:00,32.7,18.7,29.83,West,263,8.0,16.0,56,0.00,,,0.06,meteohub,2013-03-23 18:58:00,
2013-03-23 15:03:00,33.8,18.9,29.84,WSW,241,4.0,15.0,54,0.00,,,0.06,meteohub,2013-03-23 19:03:00,
2013-03-23 15:08:00,34.5,19.2,29.84,NNW,327,5.0,15.0,53,0.00,,,0.06,meteohub,2013-03-23 19:08:00,
2013-03-23 15:13:00,34.2,18.3,29.84,NW,309,2.0,15.0,52,0.00,,,0.06,meteohub,2013-03-23 19:13:00,
2013-03-23 15:18:00,33.3,18.9,29.84,ESE,112,9.0,17.0,55,0.00,,,0.06,meteohub,2013-03-23 19:18:00,
2013-03-23 15:23:00,32.7,18.7,29.84,ENE,65,1.0,17.0,56,0.00,,,0.06,meteohub,2013-03-23 19:23:00,
2013-03-23 15:28:00,32.5,17.8,29.84,SW,222,2.0,17.0,54,0.00,,,0.06,meteohub,2013-03-23 19:28:00,
2013-03-23 15:33:00,32.7,18.7,29.85,NW,304,3.0,18.0,56,0.00,,,0.06,meteohub,2013-03-23 19:33:00,
2013-03-23 15:38:00,32.9,18.5,29.84,North,0,14.0,18.0,55,0.00,,,0.06,meteohub,2013-03-23 19:38:00,
2013-03-23 15:43:00,33.3,18.9,29.84,WNW,292,10.0,18.0,55,0.00,,,0.06,meteohub,2013-03-23 19:43:00,
2013-03-23 15:48:00,33.3,18.9,29.84,East,81,1.0,14.0,55,0.00,,,0.06,meteohub,2013-03-23 19:48:00,
2013-03-23 15:53:00,33.1,19.6,29.85,ENE,62,9.0,14.0,57,0.00,,,0.06,meteohub,2013-03-23 19:53:00,
2013-03-23 15:58:00,33.3,19.8,29.85,WSW,252,5.0,14.0,57,0.00,,,0.06,meteohub,2013-03-23 19:58:00,
2013-03-23 16:03:00,33.3,19.2,29.85,SW,232,5.0,14.0,56,0.00,,,0.06,meteohub,2013-03-23 20:03:00,
2013-03-23 16:08:00,33.1,19.6,29.85,NNW,348,4.0,14.0,57,0.00,,,0.06,meteohub,2013-03-23 20:08:00,
2013-03-23 16:13:00,32.7,19.6,29.86,ESE,105,2.0,15.0,58,0.00,,,0.06,meteohub,2013-03-23 20:13:00,
2013-03-23 16:18:00,32.4,19.6,29.84,South,184,2.0,15.0,59,0.00,,,0.06,meteohub,2013-03-23 20:18:00,
2013-03-23 16:23:00,32.0,18.9,29.85,West,267,5.0,15.0,58,0.00,,,0.06,meteohub,2013-03-23 20:23:00,
2013-03-23 16:28:00,31.8,18.7,29.85,West,263,2.0,17.0,58,0.00,,,0.06,meteohub,2013-03-23 20:28:00,
2013-03-23 16:33:00,32.2,19.4,29.85,East,84,6.0,17.0,59,0.00,,,0.06,meteohub,2013-03-23 20:33:00,
2013-03-23 16:38:00,32.4,19.9,29.85,North,0,6.0,17.0,60,0.00,,,0.06,meteohub,2013-03-23 20:38:00,
2013-03-23 16:43:00,32.2,19.9,29.86,NW,308,9.0,15.0,60,0.00,,,0.06,meteohub,2013-03-23 20:43:00,
2013-03-23 16:48:00,32.2,20.3,29.86,NE,50,3.0,17.0,61,0.00,,,0.06,meteohub,2013-03-23 20:48:00,
2013-03-23 16:53:00,31.8,19.6,29.86,NNW,342,6.0,17.0,60,0.00,,,0.06,meteohub,2013-03-23 20:53:00,
2013-03-23 16:58:00,31.6,19.4,29.86,NNW,327,0.0,17.0,60,0.00,,,0.06,meteohub,2013-03-23 20:58:00,
2013-03-23 17:03:00,31.6,19.4,29.86,NW,317,10.0,14.0,60,0.00,,,0.06,meteohub,2013-03-23 21:03:00,
2013-03-23 17:08:00,31.8,19.6,29.86,NNW,340,4.0,14.0,60,0.00,,,0.06,meteohub,2013-03-23 21:08:00,
2013-03-23 17:13:00,31.8,19.6,29.86,NW,310,6.0,17.0,60,0.00,,,0.06,meteohub,2013-03-23 21:13:00,
2013-03-23 17:18:00,31.8,19.6,29.86,WNW,296,6.0,17.0,60,0.00,,,0.06,meteohub,2013-03-23 21:18:00,
2013-03-23 17:23:00,31.8,19.9,29.86,WSW,241,1.0,14.0,61,0.00,,,0.06,meteohub,2013-03-23 21:23:00,
2013-03-23 17:29:00,31.6,19.8,29.86,East,80,5.0,11.0,61,0.00,,,0.06,meteohub,2013-03-23 21:29:00,
2013-03-23 17:34:00,31.6,19.4,29.87,West,266,6.0,13.0,60,0.00,,,0.06,meteohub,2013-03-23 21:34:00,
2013-03-23 17:39:00,31.6,19.4,29.87,North,11,4.0,13.0,60,0.00,,,0.06,meteohub,2013-03-23 21:39:00,
2013-03-23 17:44:00,31.6,19.8,29.87,WNW,296,3.0,15.0,61,0.00,,,0.06,meteohub,2013-03-23 21:44:00,
2013-03-23 17:49:00,31.5,19.6,29.88,NNW,331,5.0,17.0,61,0.00,,,0.06,meteohub,2013-03-23 21:49:00,
2013-03-23 17:54:00,31.5,19.6,29.88,NW,315,5.0,17.0,61,0.00,,,0.06,meteohub,2013-03-23 21:54:00,
2013-03-23 17:59:00,31.5,19.2,29.88,NW,326,1.0,18.0,60,0.00,,,0.06,meteohub,2013-03-23 21:59:00,
2013-03-23 18:04:00,31.3,19.0,29.88,SSE,160,5.0,18.0,60,0.00,,,0.06,meteohub,2013-03-23 22:04:00,
2013-03-23 18:09:00,31.3,19.0,29.88,NE,51,0.0,18.0,60,0.00,,,0.06,meteohub,2013-03-23 22:09:00,
2013-03-23 18:14:00,30.9,19.0,29.89,NNE,28,1.0,17.0,61,0.00,,,0.06,meteohub,2013-03-23 22:14:00,
2013-03-23 18:19:00,30.9,19.4,29.88,NNE,33,5.0,17.0,62,0.00,,,0.06,meteohub,2013-03-23 22:19:00,
2013-03-23 18:24:00,30.9,19.8,29.89,WSW,258,7.0,18.0,63,0.00,,,0.06,meteohub,2013-03-23 22:24:00,
2013-03-23 18:29:00,30.9,19.4,29.88,South,186,5.0,18.0,62,0.00,,,0.06,meteohub,2013-03-23 22:29:00,
2013-03-23 18:34:00,30.7,19.2,29.88,NNE,21,1.0,16.0,62,0.00,,,0.06,meteohub,2013-03-23 22:34:00,
2013-03-23 18:39:00,30.7,19.2,29.89,East,83,3.0,18.0,62,0.00,,,0.06,meteohub,2013-03-23 22:39:00,
2013-03-23 18:44:00,30.6,19.4,29.89,NW,309,2.0,18.0,63,0.00,,,0.06,meteohub,2013-03-23 22:44:00,
2013-03-23 18:49:00,30.6,19.4,29.90,NNW,332,1.0,18.0,63,0.00,,,0.06,meteohub,2013-03-23 22:49:00,
2013-03-23 18:54:00,30.6,19.8,29.90,North,355,3.0,12.0,64,0.00,,,0.06,meteohub,2013-03-23 22:54:00,
2013-03-23 19:00:00,30.6,19.8,29.90,NNW,330,5.0,14.0,64,0.00,,,0.06,meteohub,2013-03-23 23:00:00,
2013-03-23 19:05:00,30.4,19.9,29.90,WNW,302,0.0,14.0,65,0.00,,,0.06,meteohub,2013-03-23 23:05:00,
2013-03-23 19:10:00,30.2,19.9,29.90,WNW,288,2.0,14.0,65,0.00,,,0.06,meteohub,2013-03-23 23:10:00,
2013-03-23 19:15:00,30.2,19.6,29.90,WNW,287,5.0,9.0,64,0.00,,,0.06,meteohub,2013-03-23 23:15:00,
2013-03-23 19:20:00,30.0,19.4,29.90,West,277,5.0,10.0,64,0.00,,,0.06,meteohub,2013-03-23 23:20:00,
2013-03-23 19:25:00,30.0,19.4,29.91,WNW,303,5.0,22.0,64,0.00,,,0.06,meteohub,2013-03-23 23:25:00,
2013-03-23 19:30:00,30.0,19.8,29.90,West,259,4.0,22.0,65,0.00,,,0.06,meteohub,2013-03-23 23:30:00,
2013-03-23 19:35:00,30.0,20.1,29.91,NNW,342,2.0,22.0,66,0.00,,,0.06,meteohub,2013-03-23 23:35:00,
2013-03-23 19:40:00,29.8,19.9,29.91,WNW,286,3.0,11.0,66,0.00,,,0.06,meteohub,2013-03-23 23:40:00,
2013-03-23 19:45:00,29.8,20.3,29.91,WNW,288,3.0,12.0,67,0.00,,,0.06,meteohub,2013-03-23 23:45:00,
2013-03-23 19:50:00,29.8,20.3,29.92,NW,326,4.0,12.0,67,0.00,,,0.06,meteohub,2013-03-23 23:50:00,
2013-03-23 19:55:00,29.8,20.7,29.92,NNW,339,1.0,15.0,68,0.00,,,0.06,meteohub,2013-03-23 23:55:00,
2013-03-23 20:00:00,29.8,20.8,29.91,WNW,303,4.0,15.0,69,0.00,,,0.06,meteohub,2013-03-24 00:00:00,
2013-03-23 20:05:00,29.8,20.8,29.92,SW,217,3.0,13.0,69,0.00,,,0.00,meteohub,2013-03-24 00:05:00,
2013-03-23 20:10:00,29.7,20.7,29.92,WNW,295,3.0,12.0,69,0.00,,,0.00,meteohub,2013-03-24 00:10:00,
2013-03-23 20:15:00,29.7,20.7,29.92,West,276,2.0,14.0,69,0.00,,,0.00,meteohub,2013-03-24 00:15:00,
2013-03-23 20:20:00,29.7,21.0,29.92,SW,232,5.0,14.0,70,0.00,,,0.00,meteohub,2013-03-24 00:20:00,
2013-03-23 20:25:00,29.7,21.0,29.92,WNW,294,3.0,14.0,70,0.00,,,0.00,meteohub,2013-03-24 00:25:00,
2013-03-23 20:30:00,29.5,20.8,29.93,West,269,6.0,10.0,70,0.00,,,0.00,meteohub,2013-03-24 00:30:00,
2013-03-23 20:35:00,29.5,20.8,29.93,NW,317,4.0,10.0,70,0.00,,,0.00,meteohub,2013-03-24 00:35:00,
2013-03-23 20:40:00,29.5,20.8,29.93,WNW,286,4.0,10.0,70,0.00,,,0.00,meteohub,2013-03-24 00:40:00,
2013-03-23 20:45:00,29.5,20.7,29.93,WNW,292,0.0,11.0,69,0.00,,,0.00,meteohub,2013-03-24 00:45:00,
2013-03-23 20:50:00,29.5,20.8,29.94,North,5,10.0,14.0,70,0.00,,,0.00,meteohub,2013-03-24 00:50:00,
2013-03-23 20:55:00,29.5,20.7,29.94,WNW,295,2.0,14.0,69,0.00,,,0.00,meteohub,2013-03-24 00:55:00,
2013-03-23 21:01:00,29.5,20.8,29.94,NW,319,2.0,14.0,70,0.00,,,0.00,meteohub,2013-03-24 01:01:00,
2013-03-23 21:06:00,29.3,20.5,29.94,NW,306,6.0,11.0,69,0.00,,,0.00,meteohub,2013-03-24 01:06:00,
2013-03-23 21:11:00,29.3,20.7,29.94,North,355,5.0,9.0,70,0.00,,,0.00,meteohub,2013-03-24 01:11:00,
2013-03-23 21:16:00,29.1,20.5,29.94,NW,320,1.0,9.0,70,0.00,,,0.00,meteohub,2013-03-24 01:16:00,
2013-03-23 21:21:00,29.1,20.5,29.94,WSW,244,3.0,9.0,70,0.00,,,0.00,meteohub,2013-03-24 01:21:00,
2013-03-23 21:26:00,29.1,20.5,29.94,WNW,298,0.0,9.0,70,0.00,,,0.00,meteohub,2013-03-24 01:26:00,
2013-03-23 21:31:00,28.9,20.5,29.94,NW,320,0.0,9.0,70,0.00,,,0.00,meteohub,2013-03-24 01:31:00,
2013-03-23 21:36:00,28.9,20.5,29.94,West,279,3.0,7.0,70,0.00,,,0.00,meteohub,2013-03-24 01:36:00,
2013-03-23 21:41:00,28.9,20.5,29.94,ENE,71,0.0,12.0,70,0.00,,,0.00,meteohub,2013-03-24 01:41:00,
2013-03-23 21:46:00,28.9,20.5,29.94,ENE,61,2.0,12.0,70,0.00,,,0.00,meteohub,2013-03-24 01:46:00,
2013-03-23 21:52:00,28.9,20.1,29.94,NNE,28,3.0,12.0,69,0.00,,,0.00,meteohub,2013-03-24 01:52:00,
2013-03-23 21:57:00,28.9,20.1,29.94,NNE,27,0.0,10.0,69,0.00,,,0.00,meteohub,2013-03-24 01:57:00,
2013-03-23 22:02:00,28.9,20.1,29.94,East,96,0.0,10.0,69,0.00,,,0.00,meteohub,2013-03-24 02:02:00,
2013-03-23 22:07:00,28.9,20.1,29.94,North,350,1.0,9.0,69,0.00,,,0.00,meteohub,2013-03-24 02:07:00,
2013-03-23 22:12:00,28.9,20.5,29.94,ENE,61,2.0,8.0,70,0.00,,,0.00,meteohub,2013-03-24 02:12:00,
2013-03-23 22:17:00,28.8,20.3,29.94,NNE,28,1.0,6.0,70,0.00,,,0.00,meteohub,2013-03-24 02:17:00,
2013-03-23 22:22:00,28.8,20.3,29.94,NW,307,0.0,6.0,70,0.00,,,0.00,meteohub,2013-03-24 02:22:00,
2013-03-23 22:27:00,28.8,20.3,29.94,NNW,329,1.0,6.0,70,0.00,,,0.00,meteohub,2013-03-24 02:27:00,
2013-03-23 22:32:00,28.6,20.1,29.94,North,11,1.0,6.0,70,0.00,,,0.00,meteohub,2013-03-24 02:32:00,
2013-03-23 22:37:00,28.6,20.3,29.94,NW,320,3.0,6.0,71,0.00,,,0.00,meteohub,2013-03-24 02:37:00,
2013-03-23 22:42:00,28.8,20.5,29.95,West,271,4.0,8.0,71,0.00,,,0.00,meteohub,2013-03-24 02:42:00,
2013-03-23 22:47:00,28.8,20.5,29.94,WNW,292,3.0,9.0,71,0.00,,,0.00,meteohub,2013-03-24 02:47:00,
2013-03-23 22:52:00,28.8,20.5,29.94,ESE,106,1.0,9.0,71,0.00,,,0.00,meteohub,2013-03-24 02:52:00,
2013-03-23 22:57:00,28.6,20.3,29.94,WNW,294,1.0,9.0,71,0.00,,,0.00,meteohub,2013-03-24 02:57:00,
2013-03-23 23:02:00,28.6,20.3,29.94,NW,313,0.0,8.0,71,0.00,,,0.00,meteohub,2013-03-24 03:02:00,
2013-03-23 23:07:00,28.6,20.3,29.94,NW,306,7.0,8.0,71,0.00,,,0.00,meteohub,2013-03-24 03:07:00,
2013-03-23 23:13:00,28.6,20.7,29.94,WNW,302,3.0,11.0,72,0.00,,,0.00,meteohub,2013-03-24 03:13:00,
2013-03-23 23:18:00,28.6,20.7,29.94,WNW,292,10.0,11.0,72,0.00,,,0.00,meteohub,2013-03-24 03:18:00,
2013-03-23 23:23:00,28.6,20.7,29.94,East,88,1.0,12.0,72,0.00,,,0.00,meteohub,2013-03-24 03:23:00,
2013-03-23 23:28:00,28.6,20.7,29.94,WNW,293,1.0,12.0,72,0.00,,,0.00,meteohub,2013-03-24 03:28:00,
2013-03-23 23:33:00,28.4,20.8,29.95,North,0,5.0,10.0,73,0.00,,,0.00,meteohub,2013-03-24 03:33:00,
2013-03-23 23:38:00,28.2,21.0,29.95,West,281,1.0,8.0,74,0.00,,,0.00,meteohub,2013-03-24 03:38:00,
2013-03-23 23:43:00,28.2,21.0,29.95,NW,306,4.0,9.0,74,0.00,,,0.00,meteohub,2013-03-24 03:43:00,
2013-03-23 23:48:00,28.0,21.2,29.95,WSW,239,4.0,10.0,75,0.00,,,0.00,meteohub,2013-03-24 03:48:00,
2013-03-23 23:53:00,28.0,21.2,29.95,NW,306,7.0,10.0,75,0.00,,,0.00,meteohub,2013-03-24 03:53:00,
2013-03-23 23:58:00,28.0,21.2,29.94,WNW,294,0.0,10.0,75,0.00,,,0.00,meteohub,2013-03-24 03:58:00,